OBJECT_NAME,OBJECT_ID,EPOCH,MEAN_MOTION,ECCENTRICITY,INCLINATION,RA_OF_ASC_NODE,ARG_OF_PERICENTER,MEAN_ANOMALY,EPHEMERIS_TYPE,CLASSIFICATION_TYPE,NORAD_CAT_ID,ELEMENT_SET_NO,REV_AT_EPOCH,BSTAR,MEAN_MOTION_DOT,MEAN_MOTION_DDOT CUTE-1 (CO-55),2003-031E,2026-09-12T00:03:53.668800,14.24379869,.00084928,98.6770,262.4840,297.1642,62.8671,0,U,27844,999,20403,.96669711E-4,.18E-5,0 CUBESAT XI-IV (CO-57),2003-031J,2026-09-11T13:01:51.342240,14.23658642,.00086616,98.6802,261.6728,319.6234,40.4301,0,U,27848,999,20366,.84348816E-4,.149E-5,0 CUBESAT XI-V,2005-043F,2026-09-12T05:34:01.186752,14.72820621,.00128122,98.3099,52.7515,291.2875,68.6964,0,U,28895,999,11456,.14297106E-3,.862E-5,0 CUTE-1.7+APD II (CO-65),2008-021C,2026-09-12T04:49:57.545472,15.10142030,.00105495,97.8369,238.5198,92.3685,267.8752,0,U,32785,999,99832,.1818095E-3,.2901E-4,0 CANX-2,2008-021H,2026-09-12T04:50:04.402176,15.06132543,.00119785,97.8737,236.7490,106.8958,253.3582,0,U,32790,999,99790,.14731245E-3,.2092E-4,0 SEEDS II (CO-66),2008-021J,2026-09-12T06:37:47.250048,15.35478283,.00033148,97.7561,257.5410,46.9322,313.2198,0,U,32791,999,63,.41526152E-3,.14242E-3,0 SWISSCUBE,2009-051B,2026-09-12T04:35:24.382752,14.62619689,.00058413,98.3945,164.5631,311.2141,48.8556,0,U,35932,999,90187,.13899948E-3,.657E-5,0 BEESAT-1,2009-051C,2026-09-11T16:46:40.651968,14.61835697,.00046479,98.3872,163.5146,332.7179,27.3777,0,U,35933,999,90182,.11973695E-3,.549E-5,0 ITUPSAT1,2009-051E,2026-09-12T04:14:56.062464,14.60547800,.0007046,98.3952,163.0967,339.1682,20.9230,0,U,35935,999,90143,.11498128E-3,.51E-5,0 TISAT 1,2010-035E,2026-09-12T07:20:32.818560,15.34845270,.0000951,98.0773,209.8315,33.8466,326.2835,0,U,36799,999,88105,.4988145E-3,.16781E-3,0 STRAND-1,2013-009E,2026-09-12T01:57:50.518944,14.37205401,.00081413,98.3969,73.2078,339.0402,21.0450,0,U,39090,999,70954,.6926685E-4,.163E-5,0 BRITE-AUSTRIA,2013-009F,2026-09-12T01:30:46.800288,14.36570644,.00098758,98.4046,72.3795,347.7117,12.3827,0,U,39091,999,70952,.47801257E-4,.98E-6,0 NEE-01 PEGASO,2013-018B,2026-09-11T22:34:38.186400,14.94009152,.0011398,98.1348,42.0438,234.9557,125.0593,0,U,39151,999,72365,.17038901E-3,.1756E-4,0 POPACS 2,2013-055E,2026-09-12T02:58:00.184800,14.93823158,.04058263,80.9908,44.4636,274.1271,81.3670,0,U,39269,999,67618,.15549514E-3,.9349E-4,0 POPACS 3,2013-055F,2026-09-11T22:22:47.560224,14.57380004,.0546434,81.0012,135.0158,165.2022,196.5929,0,U,39270,999,65118,.17417E-3,.7433E-4,0 ZACUBE-1 (TSHEPISOSAT),2013-066B,2026-09-11T20:16:09.333408,15.01781916,.00401153,97.8127,217.6218,323.3488,36.4993,0,U,39417,999,69373,.32255943E-3,.4211E-4,0 WNISAT-1,2013-066H,2026-09-12T03:42:57.680928,14.58190678,.0161756,97.7331,38.2015,318.3639,40.5337,0,U,39423,999,67940,.69679505E-4,.333E-5,0 TRITON-1,2013-066M,2026-09-12T04:46:40.563840,14.82035599,.00884324,97.8161,162.9994,311.4536,47.9105,0,U,39427,999,68697,.24606391E-3,.2032E-4,0 GOMX-1,2013-066Q,2026-09-12T06:29:47.177088,14.69687303,.01283715,97.6439,90.2451,156.9967,203.7060,0,U,39430,999,68270,.23234768E-3,.1519E-4,0 CUBEBUG-2 (LO-74),2013-066AA,2026-09-11T20:41:02.620896,14.94246213,.00585331,97.8974,204.2693,99.6019,261.1821,0,U,39440,999,68993,.24588277E-3,.2666E-4,0 NEE-02 KRYSAOR,2013-066AB,2026-09-12T07:06:34.841376,14.86899407,.00665303,97.8932,193.9250,142.8469,217.7378,0,U,39441,999,68914,.13048424E-3,.1155E-4,0 FUNCUBE-1 (AO-73),2013-066AE,2026-09-11T22:20:28.472640,15.10560256,.00334681,97.8376,228.3003,268.4236,91.3159,0,U,39444,999,69275,.34015162E-3,.5617E-4,0 UWE-3,2013-066AG,2026-09-11T19:49:52.300992,14.97529230,.00493099,97.8786,211.5510,32.6691,327.7564,0,U,39446,999,69054,.32432512E-3,.3815E-4,0 BRITE-CA1 (TORONTO),2014-033L,2026-09-12T03:19:39.965664,14.72810461,.00783486,97.9852,22.5213,359.5828,0.5301,0,U,40020,999,65501,.73122505E-4,.436E-5,0 DUCHIFAT-1,2014-033M,2026-09-12T03:42:56.084256,16.06818099,.00075527,98.0175,328.4080,254.1549,105.8898,0,U,40021,999,66946,.1444224E-2,.1087899E-1,.67853193E-3 NANOSATC-BR1,2014-033Q,2026-09-12T00:46:34.641696,15.33971735,.00025292,98.0655,295.2654,216.4985,143.6084,0,U,40024,999,66728,.35950811E-3,.11732E-3,0 QB50P1,2014-033R,2026-09-12T07:25:08.241888,15.19420886,.00068868,98.0960,272.6484,290.8837,69.1658,0,U,40025,999,66625,.2427103E-3,.5065E-4,0 QB50P2,2014-033Y,2026-09-12T05:51:46.945440,15.16155747,.0005891,98.0800,257.6389,229.7352,130.3365,0,U,40032,999,66585,.24162966E-3,.4587E-4,0 PERSEUS-M2,2014-033AD,2026-09-12T07:18:38.750688,14.95735606,.00126057,98.0048,207.6661,18.7295,341.4386,0,U,40037,999,66380,.15253212E-3,.164E-4,0 PERSEUS-M1,2014-033AF,2026-09-12T06:28:56.238240,14.95869487,.00118992,97.9709,200.8700,16.4925,343.6680,0,U,40039,999,66365,.1589253E-3,.1718E-4,0 POLYITAN-1,2014-033AJ,2026-09-12T00:44:32.180928,15.36022140,.00062731,98.0893,289.6848,188.9195,171.1936,0,U,40042,999,66691,.39240988E-3,.13689E-3,0 TIGRISAT,2014-033AK,2026-09-11T22:52:54.683616,14.85423106,.00497184,97.7956,43.0554,148.5511,211.8694,0,U,40043,999,65850,.19004005E-3,.1618E-4,0 AEROCUBE 6A,2014-033AM,2026-09-12T05:34:19.793856,14.98899638,.00395975,97.7332,61.3508,82.7127,277.8594,0,U,40045,999,65965,.28384243E-3,.3425E-4,0 AEROCUBE 6B,2014-033AN,2026-09-12T00:22:51.310560,15.00406624,.00412688,97.7325,61.0849,68.2809,292.2800,0,U,40046,999,65977,.37807551E-3,.4776E-4,0 CANX-4,2014-034C,2026-09-12T03:40:35.349024,14.81390379,.00140789,98.2969,133.6026,91.1035,269.1790,0,U,40055,999,65740,.82154331E-4,.586E-5,0 CANX-5,2014-034D,2026-09-12T01:59:35.979648,14.81407714,.00140795,98.2973,133.5788,91.4629,268.8196,0,U,40056,999,64820,.81456152E-4,.581E-5,0 UKUBE-1,2014-037F,2026-09-12T06:25:02.172000,15.14702384,.00010309,98.4259,267.7873,158.5643,201.5630,0,U,40074,999,66173,.2815475E-3,.5134E-4,0 BRITE-PL2 (HEWELIUSZ),2014-049B,2026-09-12T03:09:14.379552,14.94848763,.00140473,97.9165,7.8481,175.1387,184.9972,0,U,40119,999,65443,.16541824E-3,.1745E-4,0 AEROCUBE 5C,2015-058B,2026-09-11T14:09:10.134432,14.91854348,.01373485,64.7678,353.6988,30.6239,330.2799,0,U,40965,999,37854,.1176447E-3,.1243E-4,0 AEROCUBE 7,2015-058C,2026-09-11T14:25:54.166368,14.96290585,.01269808,64.7622,334.0117,28.7265,332.0765,0,U,40966,999,37888,.15132131E-3,.1829E-4,0 FOX-1A (AO-85),2015-058D,2026-09-11T17:34:30.385632,14.91379557,.01378628,64.7755,9.9285,24.1561,336.5933,0,U,40967,999,12647,.11851119E-3,.1238E-4,0 SINOD-D 1,2015-058E,2026-09-11T15:15:07.638048,14.96486207,.01266492,64.7767,348.0513,20.3449,340.2646,0,U,40968,999,12959,.15548602E-3,.1894E-4,0 SNAP-3 ALICE,2015-058G,2026-09-12T06:07:28.128288,16.00421855,.00150566,64.7368,156.9044,274.1297,85.8148,0,U,40970,999,13058,.19084243E-2,.1013612E-1,.51697067E-3 LMRST-SAT,2015-058H,2026-09-11T17:02:52.305504,14.90977907,.0139287,64.7763,6.5048,26.0779,334.7261,0,U,40971,999,12645,.11450218E-3,.118E-4,0 SNAP-3 EDDIE,2015-058J,2026-09-12T02:09:28.362240,16.06164276,.00145514,64.7332,146.8289,270.5356,89.4145,0,U,40972,999,13272,.13005745E-2,.972935E-2,.52093262E-3 PROPCUBE 3,2015-058K,2026-09-12T06:22:56.188704,14.94753589,.01310071,64.7687,340.3480,26.8608,333.9209,0,U,40973,999,12781,.13638638E-3,.1574E-4,0 BISONSAT,2015-058L,2026-09-12T02:35:05.040672,15.17997446,.00859116,64.7562,252.1813,10.0709,350.2112,0,U,40974,999,12880,.4869269E-3,.10753E-3,0 SNAP-3 JIMI,2015-058M,2026-09-11T12:03:59.518080,15.03118263,.01131406,64.7643,306.4742,21.9978,338.5939,0,U,40975,999,12719,.21008888E-3,.3075E-4,0 PROPCUBE 1 (FLORA),2015-058N,2026-09-11T17:53:12.064992,14.89598215,.0137671,64.7745,26.8797,28.3383,332.5128,0,U,40976,999,12915,.11894E-3,.1179E-4,0 SINOD-D 3,2015-058P,2026-09-11T17:00:22.955328,14.94552234,.01263278,64.7741,5.5127,25.1998,335.5206,0,U,40977,999,12768,.15331813E-3,.1761E-4,0 RAVAN,2016-067B,2026-09-12T04:40:47.430624,15.64476753,.00057859,97.9727,155.3943,72.9259,287.2631,0,U,41849,999,54125,.71529537E-3,.69089E-3,0 CELTEE 1,2016-067C,2026-09-12T02:24:13.310784,15.20415776,.0000937,98.0527,127.5829,53.2124,306.9195,0,U,41850,999,53908,.16697541E-3,.3561E-4,0 OPTICUBE 04,2016-067D,2026-09-12T02:20:07.476000,15.09962951,.00153784,98.0590,111.8938,178.2029,181.9257,0,U,41851,999,53828,.10073717E-3,.1567E-4,0 AEROCUBE 8D,2016-067E,2026-09-12T02:22:02.122752,15.25460617,.00032264,98.0528,131.8893,166.6518,193.4804,0,U,41852,999,53931,.22435758E-3,.5594E-4,0 AEROCUBE 8C,2016-067F,2026-09-12T02:37:10.035552,15.25719521,.000648,98.0405,129.0187,112.4365,247.7559,0,U,41853,999,53931,.20555046E-3,.516E-4,0 CORVUS BC2,2017-042X,2026-09-12T04:54:30.029472,15.06745606,.00131099,97.4165,53.2558,168.2048,191.9490,0,U,42846,999,50016,.17144068E-3,.2494E-4,0 CORVUS BC1,2017-042Y,2026-09-12T06:08:55.024224,15.06904201,.00125713,97.4202,54.1748,144.6441,215.5623,0,U,42847,999,50020,.19494133E-3,.2856E-4,0 MAKERSAT 0,2017-073D,2026-09-11T15:11:22.520256,15.35343385,.00984371,97.4467,137.9420,325.7310,33.7606,0,U,43016,999,47971,.52417302E-3,.21064E-3,0 SIRION PATHFINDER-2,2018-099B,2026-09-12T01:01:23.407392,15.15175454,.00087091,97.4174,302.0350,9.9109,350.2294,0,U,43759,999,42577,.15686795E-3,.288E-4,0 CORVUS BC4,2018-099K,2026-09-12T02:27:20.145600,15.13080715,.00096738,97.3993,295.5382,66.1686,294.0558,0,U,43767,999,42554,.15921557E-3,.2756E-4,0 M2 PATHFINDER,2020-037E,2026-09-12T02:04:53.702688,15.05005125,.00106529,97.8132,87.3203,214.4998,145.5537,0,U,45727,999,33856,.16669326E-3,.2304E-4,0 NETSAT-4,2020-068U,2026-09-12T06:54:31.924800,15.46600610,.00053645,97.8601,270.7179,30.0477,330.1078,0,U,46504,999,32922,.30925326E-3,.15317E-3,0 NETSAT-3,2020-068V,2026-09-12T00:50:23.025408,15.45435866,.00057613,97.8659,268.5603,45.9312,314.2409,0,U,46505,999,32908,.30971523E-3,.14738E-3,0 NETSAT-1,2020-068W,2026-09-12T07:48:40.597632,15.36425824,.00063108,97.8778,262.1212,70.7893,289.4032,0,U,46506,999,32867,.24049252E-3,.8461E-4,0 NETSAT-2,2020-068X,2026-09-11T23:49:17.290272,15.49376881,.00049606,97.8610,270.6614,62.0679,298.1073,0,U,46507,999,32916,.3104253E-3,.16937E-3,0 GREENCUBE (IO-117),2022-080E,2026-09-12T00:42:18.709344,6.42583747,.00092194,70.1217,268.0398,270.7714,89.1889,0,U,53109,999,9764,0,-.3E-7,0 SITRO-AIS 5 (KATYS),2023-091L,2026-09-12T07:05:44.948832,15.31188211,.00116808,97.4977,320.0944,147.8474,212.3481,0,U,57176,999,17766,.29079826E-3,.87E-4,0 SITRO-AIS 6 (CHIRKIN),2023-091AC,2026-09-12T06:54:26.346816,15.27351119,.00119364,97.4985,318.7228,152.8862,207.3003,0,U,57192,999,17757,.25572274E-3,.6787E-4,0 SITRO-AIS 8 (ANOKHIN),2023-091AD,2026-09-12T06:44:46.046400,15.34221750,.00107904,97.4976,322.0466,143.3608,216.8375,0,U,57193,999,17779,.32217466E-3,.10613E-3,0 SITRO-AIS 7 (FARTUSHNIY),2023-091AE,2026-09-12T05:51:48.930048,15.27000901,.00118327,97.4980,318.4553,154.2147,205.9684,0,U,57194,999,17755,.2685268E-3,.7055E-4,0 SITRO-AIS 10 (BURDAEV),2023-091AK,2026-09-12T07:26:23.615520,15.41665496,.00073006,97.5005,328.0940,116.4278,243.7718,0,U,57199,999,17817,.37416512E-3,.1571E-3,0 SITRO-AIS 9 (SHCHUKIN),2023-091AM,2026-09-12T07:14:19.816800,15.41080165,.00075456,97.5004,327.7412,116.9704,243.2314,0,U,57201,999,17815,.37682021E-3,.15518E-3,0 SITRO-AIS 12 (SMIRENNIY),2023-091AQ,2026-09-12T06:36:24.636096,15.41396141,.0007191,97.5018,328.2377,111.8655,248.3357,0,U,57204,999,17817,.38149881E-3,.15877E-3,0 SITRO-AIS 11 (SHEFFER),2023-091AU,2026-09-12T06:18:13.782528,15.41895321,.00071243,97.5016,328.5313,111.3332,248.8676,0,U,57208,999,17819,.38220511E-3,.16173E-3,0 SITRO-AIS 25,2024-039R,2026-09-12T06:16:29.767296,14.94021999,.01441864,95.3823,294.9049,24.2765,336.5164,0,U,59066,999,13772,.23957438E-3,.3105E-4,0 SITRO-AIS 26,2024-039S,2026-09-12T08:12:39.032352,14.93804833,.01446224,95.3823,294.8393,24.6591,336.1458,0,U,59067,999,13772,.20217051E-3,.2603E-4,0 SITRO-AIS 27,2024-039T,2026-09-12T06:53:51.653760,14.94239815,.01435726,95.3824,295.1148,23.2465,337.5168,0,U,59068,999,13774,.17269926E-3,.2238E-4,0 SITRO-AIS 28,2024-039U,2026-09-12T06:18:31.472928,14.94275262,.01434247,95.3827,295.1500,23.2039,337.5576,0,U,59071,999,13774,.23846971E-3,.3106E-4,0 GRBBETA,2024-128C,2026-09-12T03:31:48.609696,15.07159723,.0027965,61.9882,271.0415,153.7625,206.4892,0,U,60237,999,11937,.14212281E-3,.1946E-4,0 OOV-CUBE (TUBSAT-30),2024-128F,2026-09-12T01:54:09.755712,15.03087611,.00324263,61.9933,282.5109,153.9439,206.3293,0,U,60240,999,11917,.9736169E-4,.112E-4,0 ROBUSTA-3A (MEDITERRANEE),2024-128J,2026-09-12T06:53:20.100480,15.12690796,.00289224,61.9844,259.9815,145.9027,214.3935,0,U,60243,999,11959,.22149275E-3,.3706E-4,0 LASARSAT,2024-247Q,2026-09-12T00:49:47.229888,15.51841192,.00087336,44.9719,132.2111,184.2264,175.8556,0,U,62391,999,9678,.56378323E-3,.34352E-3,0 CROCUBE,2024-247T,2026-09-11T01:36:12.129120,15.54622235,.0009251,44.9695,133.3082,188.0193,172.0553,0,U,62394,999,9668,.60575E-3,.40936E-3,0 FORESAIL-1 PRIME,2025-276DS,2026-09-12T03:31:44.548032,15.19324325,.00031796,97.4132,326.8295,135.5170,224.6320,0,U,66778,999,4360,.17069557E-3,.3538E-4,0 KNACKSAT-2,1998-067XZ,2026-09-12T07:29:09.993408,15.68476422,.00079593,51.6258,213.5681,152.6345,207.5073,0,U,67683,999,3391,.48789278E-3,.56149E-3,0 MARINA,2026-156BD,2026-09-11T16:01:48.326016,14.92152354,.00061369,97.7446,154.0320,302.2770,57.7854,0,U,69920,999,989,.18056303E-3,.1782E-4,0